| time (UTC) | temp F | wind direction | speed knots | gust knots | rain 1hr in | rain 24hr in | rain mn in | humidity % | barometer mb |
| 20260510164512 | 84 | 98 | 6.1 | 11.3 | 0.00 | 0.00 | 0.00 | 75 | 1012.6 |
| 20260510164002 | 85 | 109 | 4.3 | 12.2 | 0.00 | 0.00 | 0.00 | 74 | 1012.5 |
| 20260510163503 | 85 | 87 | 6.1 | 11.3 | 0.00 | 0.00 | 0.00 | 74 | 1012.5 |
| 20260510163003 | 84 | 113 | 4.3 | 7.8 | 0.00 | 0.00 | 0.00 | 73 | 1012.6 |
| 20260510162601 | 84 | 175 | 2.6 | 7.8 | 0.00 | 0.00 | 0.00 | 76 | 1012.5 |
| 20260510162101 | 84 | 190 | 4.3 | 7.8 | 0.00 | 0.00 | 0.00 | 73 | 1012.4 |
| 20260510161559 | 84 | 139 | 1.7 | 7.8 | 0.00 | 0.00 | 0.00 | 74 | 1012.4 |
| 20260510161059 | 83 | 131 | 2.6 | 8.7 | 0.00 | 0.00 | 0.00 | 74 | 1012.5 |
| 20260510160559 | 83 | 97 | 4.3 | 8.7 | 0.00 | 0.00 | 0.00 | 74 | 1012.5 |
| 20260510160058 | 83 | 134 | 3.5 | 8.7 | 0.00 | 0.00 | 0.00 | 75 | 1012.5 |
| 20260510155601 | 83 | 81 | 3.5 | 7.0 | 0.00 | 0.00 | 0.00 | 76 | 1012.4 |
| 20260510155100 | 84 | 99 | 1.7 | 4.3 | 0.00 | 0.00 | 0.00 | 73 | 1012.5 |
| 20260510154557 | 84 | 141 | 1.7 | 6.1 | 0.00 | 0.00 | 0.00 | 73 | 1012.4 |
| 20260510154056 | 84 | 120 | 2.6 | 7.0 | 0.00 | 0.00 | 0.00 | 73 | 1012.4 |
| 20260510153555 | 84 | 132 | 2.6 | 6.1 | 0.00 | 0.00 | 0.00 | 75 | 1012.3 |
| 20260510153054 | 83 | 172 | 1.7 | 7.0 | 0.00 | 0.00 | 0.00 | 76 | 1012.2 |
| 20260510152559 | 83 | 127 | 2.6 | 7.0 | 0.00 | 0.00 | 0.00 | 76 | 1012.2 |
| 20260510152054 | 83 | 150 | 1.7 | 6.1 | 0.00 | 0.00 | 0.00 | 76 | 1012.2 |
| 20260510151554 | 83 | 121 | 2.6 | 6.1 | 0.00 | 0.00 | 0.00 | 76 | 1012.2 |
| 20260510151053 | 83 | 123 | 2.6 | 7.0 | 0.00 | 0.00 | 0.00 | 76 | 1012.1 |
| 20260510150552 | 83 | 125 | 1.7 | 7.0 | 0.00 | 0.00 | 0.00 | 76 | 1012.1 |
| 20260510150051 | 83 | 135 | 3.5 | 7.0 | 0.00 | 0.00 | 0.00 | 76 | 1011.9 |
| 20260510145550 | 83 | 130 | 2.6 | 6.1 | 0.00 | 0.00 | 0.00 | 77 | 1011.8 |
| 20260510145049 | 82 | 115 | 3.5 | 6.1 | 0.00 | 0.00 | 0.00 | 77 | 1011.6 |
| 20260510144551 | 82 | 142 | 2.6 | 6.1 | 0.00 | 0.00 | 0.00 | 78 | 1011.6 |
| 20260510144049 | 82 | 194 | 0.9 | 4.3 | 0.00 | 0.00 | 0.00 | 78 | 1011.7 |
| 20260510143550 | 82 | 222 | 1.7 | 6.1 | 0.00 | 0.00 | 0.00 | 78 | 1011.6 |
| 20260510143048 | 82 | 101 | 2.6 | 6.1 | 0.00 | 0.00 | 0.00 | 76 | 1011.5 |
| 20260510142551 | 83 | 212 | 1.7 | 7.0 | 0.00 | 0.00 | 0.00 | 77 | 1011.6 |
| 20260510142050 | 82 | 192 | 2.6 | 7.0 | 0.00 | 0.00 | 0.00 | 80 | 1011.5 |
| 20260510141554 | 81 | 179 | 0.9 | 3.5 | 0.00 | 0.00 | 0.00 | 81 | 1011.5 |
| 20260510141044 | 81 | 205 | 1.7 | 3.5 | 0.00 | 0.00 | 0.00 | 83 | 1011.4 |
| 20260510140545 | 80 | 170 | 0.9 | 5.2 | 0.00 | 0.00 | 0.00 | 84 | 1011.5 |
| 20260510140041 | 80 | 227 | 1.7 | 5.2 | 0.00 | 0.03 | 0.00 | 84 | 1011.5 |
| 20260510135541 | 79 | 214 | 1.7 | 5.2 | 0.00 | 0.03 | 0.00 | 84 | 1011.3 |
| 20260510135040 | 79 | 182 | 2.6 | 6.1 | 0.00 | 0.03 | 0.00 | 84 | 1011.4 |
| 20260510134539 | 79 | 205 | 1.7 | 6.1 | 0.00 | 0.03 | 0.00 | 86 | 1011.3 |
| 20260510134038 | 79 | 194 | 1.7 | 6.1 | 0.00 | 0.03 | 0.00 | 86 | 1011.3 |
| 20260510133538 | 79 | 160 | 1.7 | 6.1 | 0.00 | 0.03 | 0.00 | 86 | 1011.4 |
| 20260510133049 | 78 | 195 | 2.6 | 6.1 | 0.00 | 0.03 | 0.00 | 86 | 1011.4 |
| 20260510132537 | 78 | 232 | 0.9 | 4.3 | 0.00 | 0.03 | 0.00 | 88 | 1011.3 |
| 20260510132036 | 78 | 180 | 0.9 | 4.3 | 0.00 | 0.03 | 0.00 | 89 | 1011.3 |
| 20260510131534 | 77 | 199 | 1.7 | 4.3 | 0.00 | 0.03 | 0.00 | 89 | 1011.2 |
| 20260510131034 | 77 | 158 | 1.7 | 6.1 | 0.00 | 0.03 | 0.00 | 90 | 1011.1 |
| 20260510130533 | 77 | 159 | 1.7 | 4.3 | 0.00 | 0.03 | 0.00 | 90 | 1011.0 |
| 20260510130033 | 77 | 152 | 0.9 | 4.3 | 0.00 | 0.14 | 0.00 | 90 | 1011.1 |
| 20260510125533 | 77 | 132 | 0.9 | 4.3 | 0.00 | 0.14 | 0.00 | 90 | 1011.0 |
| 20260510125033 | 77 | 142 | 1.7 | 3.5 | 0.00 | 0.14 | 0.00 | 91 | 1011.0 |
| 20260510124531 | 77 | 146 | 1.7 | 3.5 | 0.00 | 0.14 | 0.00 | 91 | 1011.0 |
| 20260510124031 | 76 | 148 | 0.9 | 4.3 | 0.00 | 0.14 | 0.00 | 92 | 1011.0 |
| 20260510123533 | 76 | 150 | 0.9 | 4.3 | 0.00 | 0.14 | 0.00 | 92 | 1011.0 |
| 20260510123032 | 76 | 150 | 0.9 | 4.3 | 0.00 | 0.14 | 0.00 | 92 | 1010.9 |
| 20260510122532 | 76 | 177 | 0.9 | 2.6 | 0.00 | 0.14 | 0.00 | 92 | 1010.9 |
| 20260510122028 | 75 | 180 | 0.0 | 2.6 | 0.00 | 0.14 | 0.00 | 93 | 1010.9 |
| 20260510121528 | 75 | 202 | 0.0 | 1.7 | 0.00 | 0.14 | 0.00 | 93 | 1010.9 |
| 20260510121029 | 75 | 206 | 0.0 | 3.5 | 0.00 | 0.14 | 0.00 | 93 | 1010.7 |
| 20260510120527 | 75 | 207 | 0.9 | 3.5 | 0.00 | 0.14 | 0.00 | 93 | 1010.7 |
| 20260510120031 | 75 | 159 | 0.9 | 2.6 | 0.00 | 0.28 | 0.00 | 94 | 1010.7 |
| 20260510115529 | 75 | 159 | 0.0 | 2.6 | 0.00 | 0.28 | 0.00 | 94 | 1010.6 |
| 20260510115027 | 75 | 130 | 0.0 | 1.7 | 0.00 | 0.28 | 0.00 | 94 | 1010.6 |
| 20260510114527 | 75 | 130 | 0.0 | 1.7 | 0.00 | 0.28 | 0.00 | 94 | 1010.5 |
| 20260510114030 | 75 | 130 | 0.9 | 1.7 | 0.00 | 0.28 | 0.00 | 93 | 1010.5 |
| 20260510113526 | 75 | 130 | 0.9 | 1.7 | 0.00 | 0.28 | 0.00 | 93 | 1010.4 |
| 20260510113030 | 75 | 130 | 0.0 | 0.9 | 0.00 | 0.28 | 0.00 | 93 | 1010.5 |
| 20260510112527 | 75 | 130 | 0.0 | 1.7 | 0.00 | 0.28 | 0.00 | 93 | 1010.6 |
| 20260510112027 | 75 | 130 | 0.0 | 1.7 | 0.00 | 0.28 | 0.00 | 93 | 1010.6 |
| 20260510111527 | 75 | 130 | 0.0 | 1.7 | 0.00 | 0.28 | 0.00 | 93 | 1010.5 |
| 20260510111026 | 75 | 130 | 0.0 | 0.9 | 0.00 | 0.28 | 0.00 | 93 | 1010.5 |
| 20260510110526 | 75 | 130 | 0.0 | 2.6 | 0.00 | 0.28 | 0.00 | 93 | 1010.5 |
| 20260510110025 | 75 | 130 | 0.0 | 2.6 | 0.00 | 0.50 | 0.00 | 93 | 1010.5 |
| 20260510105525 | 75 | 130 | 0.0 | 1.7 | 0.00 | 0.50 | 0.00 | 93 | 1010.6 |
| 20260510105025 | 75 | 130 | 0.0 | 1.7 | 0.00 | 0.50 | 0.00 | 94 | 1010.6 |
| 20260510104525 | 75 | 130 | 0.9 | 1.7 | 0.00 | 0.50 | 0.00 | 94 | 1010.6 |
| 20260510104025 | 75 | 130 | 0.0 | 1.7 | 0.00 | 0.50 | 0.00 | 93 | 1010.5 |
| 20260510103524 | 75 | 130 | 0.0 | 1.7 | 0.00 | 0.50 | 0.00 | 93 | 1010.4 |
| 20260510103026 | 75 | 130 | 0.0 | 1.7 | 0.00 | 0.50 | 0.00 | 93 | 1010.4 |
| 20260510102524 | 75 | 130 | 0.9 | 1.7 | 0.00 | 0.50 | 0.00 | 94 | 1010.4 |
| 20260510102024 | 75 | 130 | 0.0 | 0.9 | 0.00 | 0.50 | 0.00 | 94 | 1010.3 |
| 20260510101523 | 75 | 130 | 0.0 | 1.7 | 0.00 | 0.50 | 0.00 | 94 | 1010.3 |
| 20260510101023 | 75 | 130 | 0.9 | 1.7 | 0.00 | 0.50 | 0.00 | 94 | 1010.4 |
| 20260510100525 | 75 | 130 | 0.0 | 0.9 | 0.00 | 0.50 | 0.00 | 93 | 1010.4 |
| 20260510100022 | 75 | 130 | 0.0 | 0.9 | 0.00 | 0.52 | 0.00 | 93 | 1010.5 |
| 20260510095522 | 75 | 130 | 0.0 | 1.7 | 0.00 | 0.52 | 0.00 | 93 | 1010.5 |
| 20260510095020 | 75 | 130 | 0.9 | 1.7 | 0.00 | 0.52 | 0.00 | 93 | 1010.4 |
| 20260510094521 | 75 | 130 | 0.0 | 1.7 | 0.00 | 0.52 | 0.00 | 93 | 1010.4 |
| 20260510094021 | 75 | 130 | 0.0 | 0.9 | 0.00 | 0.52 | 0.00 | 93 | 1010.3 |
| 20260510093521 | 75 | 130 | 0.0 | 1.7 | 0.00 | 0.52 | 0.00 | 93 | 1010.4 |
| 20260510093021 | 75 | 130 | 0.0 | 1.7 | 0.00 | 0.52 | 0.00 | 93 | 1010.5 |
| 20260510092520 | 75 | 130 | 0.0 | 0.9 | 0.00 | 0.52 | 0.00 | 92 | 1010.3 |
| 20260510092019 | 75 | 130 | 0.0 | 0.9 | 0.00 | 0.52 | 0.00 | 92 | 1010.2 |
| 20260510091520 | 75 | 130 | 0.0 | 0.9 | 0.00 | 0.52 | 0.00 | 92 | 1010.2 |
| 20260510091025 | 75 | 130 | 0.0 | 1.7 | 0.00 | 0.52 | 0.00 | 92 | 1010.1 |
| 20260510090519 | 75 | 130 | 0.0 | 1.7 | 0.00 | 0.52 | 0.00 | 92 | 1010.1 |
| 20260510090019 | 75 | 130 | 0.0 | 1.7 | 0.00 | 0.52 | 0.00 | 92 | 1010.2 |
| 20260510085518 | 75 | 130 | 0.0 | 1.7 | 0.00 | 0.52 | 0.00 | 92 | 1010.2 |
| 20260510085017 | 75 | 130 | 0.0 | 2.6 | 0.00 | 0.52 | 0.00 | 92 | 1010.2 |
| 20260510084518 | 75 | 130 | 0.9 | 2.6 | 0.00 | 0.52 | 0.00 | 92 | 1010.2 |
| 20260510084021 | 75 | 177 | 0.9 | 2.6 | 0.00 | 0.52 | 0.00 | 92 | 1010.2 |
| 20260510083520 | 75 | 178 | 0.9 | 2.6 | 0.00 | 0.52 | 0.00 | 92 | 1010.2 |
| 20260510083017 | 75 | 180 | 0.9 | 2.6 | 0.00 | 0.52 | 0.00 | 92 | 1010.2 |
| 20260510082518 | 75 | 206 | 0.0 | 3.5 | 0.00 | 0.52 | 0.00 | 92 | 1010.3 |
| 20260510082018 | 75 | 206 | 0.0 | 3.5 | 0.00 | 0.52 | 0.00 | 92 | 1010.3 |
| 20260510081516 | 75 | 205 | 0.9 | 4.3 | 0.00 | 0.52 | 0.00 | 91 | 1010.3 |
| 20260510081016 | 75 | 168 | 0.0 | 4.3 | 0.00 | 0.52 | 0.00 | 91 | 1010.3 |
| 20260510080516 | 76 | 160 | 0.0 | 2.6 | 0.00 | 0.52 | 0.00 | 91 | 1010.4 |
| 20260510080015 | 76 | 194 | 0.0 | 3.5 | 0.00 | 0.52 | 0.00 | 91 | 1010.4 |
| 20260510075515 | 76 | 201 | 0.0 | 2.6 | 0.00 | 0.52 | 0.00 | 91 | 1010.4 |
| 20260510075014 | 76 | 130 | 0.9 | 2.6 | 0.00 | 0.52 | 0.00 | 90 | 1010.4 |
| 20260510074515 | 76 | 187 | 0.9 | 3.5 | 0.00 | 0.52 | 0.00 | 90 | 1010.5 |
| 20260510074019 | 76 | 139 | 0.9 | 2.6 | 0.00 | 0.52 | 0.00 | 90 | 1010.6 |
| 20260510073514 | 76 | 139 | 0.9 | 2.6 | 0.00 | 0.52 | 0.00 | 90 | 1010.5 |
| 20260510073014 | 76 | 147 | 0.0 | 4.3 | 0.00 | 0.52 | 0.00 | 90 | 1010.5 |
| 20260510072513 | 76 | 147 | 0.9 | 4.3 | 0.00 | 0.52 | 0.00 | 89 | 1010.5 |
| 20260510072015 | 76 | 173 | 0.0 | 4.3 | 0.00 | 0.52 | 0.00 | 89 | 1010.5 |
| 20260510071514 | 76 | 173 | 0.9 | 4.3 | 0.00 | 0.52 | 0.00 | 89 | 1010.4 |
| 20260510071013 | 76 | 186 | 0.0 | 2.6 | 0.00 | 0.52 | 0.00 | 89 | 1010.5 |
| 20260510070514 | 76 | 153 | 0.9 | 3.5 | 0.00 | 0.52 | 0.00 | 89 | 1010.5 |
| 20260510070012 | 76 | 119 | 0.0 | 5.2 | 0.00 | 0.52 | 0.00 | 89 | 1010.7 |
| 20260510065512 | 76 | 199 | 0.9 | 5.2 | 0.00 | 0.52 | 0.00 | 88 | 1010.6 |
| 20260510065012 | 76 | 173 | 0.9 | 5.2 | 0.00 | 0.52 | 0.00 | 88 | 1010.6 |
| 20260510064511 | 76 | 145 | 1.7 | 4.3 | 0.00 | 0.52 | 0.00 | 88 | 1010.6 |
| 20260510064011 | 76 | 153 | 1.7 | 7.0 | 0.00 | 0.52 | 0.00 | 88 | 1010.8 |
| 20260510063511 | 76 | 155 | 1.7 | 7.0 | 0.00 | 0.52 | 0.00 | 88 | 1010.9 |
| 20260510063011 | 76 | 139 | 2.6 | 7.0 | 0.00 | 0.52 | 0.00 | 88 | 1010.9 |
| 20260510062511 | 76 | 134 | 1.7 | 7.0 | 0.00 | 0.52 | 0.00 | 88 | 1010.8 |
| 20260510062011 | 76 | 142 | 2.6 | 7.0 | 0.00 | 0.52 | 0.00 | 87 | 1010.8 |
| 20260510061510 | 76 | 149 | 1.7 | 5.2 | 0.00 | 0.52 | 0.00 | 87 | 1010.8 |
| 20260510061010 | 76 | 157 | 2.6 | 5.2 | 0.00 | 0.52 | 0.00 | 87 | 1010.8 |
| 20260510060510 | 76 | 139 | 1.7 | 5.2 | 0.00 | 0.52 | 0.00 | 87 | 1010.8 |
| 20260510060018 | 76 | 123 | 1.7 | 7.0 | 0.00 | 0.52 | 0.00 | 87 | 1010.9 |
| 20260510055508 | 76 | 120 | 2.6 | 7.0 | 0.00 | 0.52 | 0.00 | 87 | 1010.8 |
| 20260510055007 | 76 | 136 | 1.7 | 4.3 | 0.00 | 0.52 | 0.00 | 86 | 1010.7 |
| 20260510054507 | 76 | 141 | 1.7 | 5.2 | 0.00 | 0.52 | 0.00 | 86 | 1010.8 |
| 20260510054007 | 76 | 142 | 1.7 | 4.3 | 0.00 | 0.52 | 0.00 | 86 | 1010.7 |
| 20260510053509 | 76 | 141 | 1.7 | 4.3 | 0.00 | 0.52 | 0.00 | 86 | 1010.6 |
| 20260510053011 | 76 | 140 | 1.7 | 3.5 | 0.00 | 0.52 | 0.00 | 86 | 1010.6 |
| 20260510052504 | 76 | 183 | 0.9 | 3.5 | 0.00 | 0.52 | 0.00 | 86 | 1010.5 |
| 20260510052003 | 76 | 183 | 0.9 | 3.5 | 0.00 | 0.52 | 0.00 | 85 | 1010.5 |
| 20260510051503 | 76 | 186 | 0.9 | 6.1 | 0.00 | 0.52 | 0.00 | 85 | 1010.2 |
| 20260510051002 | 76 | 119 | 2.6 | 6.1 | 0.00 | 0.52 | 0.00 | 85 | 1010.2 |
| 20260510050503 | 76 | 127 | 0.9 | 5.2 | 0.00 | 0.52 | 0.00 | 84 | 1010.2 |
| 20260510050100 | 76 | 180 | 1.7 | 7.0 | 0.00 | 0.52 | 0.52 | 84 | 1010.1 |
| 20260510045600 | 76 | 149 | 1.7 | 7.0 | 0.00 | 0.52 | 0.52 | 83 | 1010.1 |
| 20260510045100 | 76 | 207 | 1.7 | 6.1 | 0.00 | 0.52 | 0.52 | 83 | 1009.9 |
| 20260510044601 | 76 | 182 | 1.7 | 6.1 | 0.00 | 0.52 | 0.52 | 83 | 1010.0 |
| 20260510044100 | 76 | 224 | 1.7 | 4.3 | 0.00 | 0.52 | 0.52 | 83 | 1010.0 |
| 20260510043603 | 76 | 208 | 0.9 | 3.5 | 0.00 | 0.52 | 0.52 | 83 | 1010.1 |
| 20260510043109 | 76 | 162 | 0.9 | 5.2 | 0.00 | 0.52 | 0.52 | 82 | 1010.1 |
| 20260510042559 | 76 | 155 | 0.9 | 5.2 | 0.00 | 0.52 | 0.52 | 82 | 1010.1 |
| 20260510042059 | 76 | 167 | 0.9 | 4.3 | 0.00 | 0.52 | 0.52 | 82 | 1010.1 |
| 20260510041600 | 77 | 166 | 0.9 | 4.3 | 0.00 | 0.52 | 0.52 | 82 | 1010.2 |
| 20260510041058 | 77 | 165 | 1.7 | 3.5 | 0.00 | 0.52 | 0.52 | 81 | 1010.2 |
| 20260510040558 | 77 | 126 | 1.7 | 6.1 | 0.00 | 0.52 | 0.52 | 81 | 1010.3 |
| 20260510040109 | 77 | 131 | 1.7 | 7.8 | 0.00 | 0.52 | 0.52 | 80 | 1010.3 |
| 20260510035557 | 77 | 138 | 3.5 | 7.8 | 0.00 | 0.52 | 0.52 | 80 | 1010.2 |
| 20260510035057 | 77 | 137 | 1.7 | 8.7 | 0.00 | 0.52 | 0.52 | 80 | 1010.1 |
| 20260510034604 | 77 | 113 | 3.5 | 8.7 | 0.00 | 0.52 | 0.52 | 79 | 1010.1 |
| 20260510034057 | 77 | 169 | 3.5 | 7.8 | 0.00 | 0.52 | 0.52 | 78 | 1010.1 |
| 20260510033557 | 77 | 131 | 2.6 | 8.7 | 0.00 | 0.52 | 0.52 | 78 | 1010.2 |
| 20260510033056 | 77 | 138 | 2.6 | 8.7 | 0.00 | 0.52 | 0.52 | 77 | 1010.0 |
| 20260510032556 | 77 | 112 | 2.6 | 8.7 | 0.00 | 0.52 | 0.52 | 76 | 1010.0 |
| 20260510032057 | 78 | 112 | 5.2 | 8.7 | 0.00 | 0.52 | 0.52 | 76 | 1010.0 |
| 20260510031559 | 78 | 105 | 3.5 | 7.8 | 0.00 | 0.52 | 0.52 | 75 | 1009.9 |
| 20260510031055 | 78 | 177 | 3.5 | 7.0 | 0.00 | 0.52 | 0.52 | 75 | 1009.8 |
| 20260510030555 | 78 | 153 | 2.6 | 7.8 | 0.00 | 0.52 | 0.52 | 74 | 1009.7 |
| 20260510030055 | 78 | 142 | 3.5 | 7.8 | 0.00 | 0.52 | 0.52 | 74 | 1009.5 |
| 20260510025555 | 78 | 140 | 3.5 | 7.0 | 0.00 | 0.52 | 0.52 | 74 | 1009.6 |
| 20260510025056 | 78 | 101 | 1.7 | 8.7 | 0.00 | 0.52 | 0.52 | 74 | 1009.6 |
| 20260510024555 | 78 | 119 | 4.3 | 8.7 | 0.00 | 0.52 | 0.52 | 74 | 1009.3 |
| 20260510024054 | 78 | 127 | 3.5 | 7.8 | 0.00 | 0.52 | 0.52 | 73 | 1009.2 |
| 20260510023555 | 78 | 167 | 3.5 | 7.8 | 0.00 | 0.52 | 0.52 | 73 | 1009.2 |
| 20260510023054 | 78 | 143 | 2.6 | 7.8 | 0.00 | 0.52 | 0.52 | 73 | 1009.3 |
| 20260510022554 | 78 | 134 | 2.6 | 7.8 | 0.00 | 0.52 | 0.52 | 72 | 1009.0 |
| 20260510022054 | 78 | 138 | 2.6 | 7.0 | 0.00 | 0.52 | 0.52 | 71 | 1008.9 |
| 20260510021557 | 79 | 136 | 3.5 | 8.7 | 0.00 | 0.52 | 0.52 | 71 | 1009.0 |
| 20260510021053 | 79 | 108 | 4.3 | 8.7 | 0.00 | 0.52 | 0.52 | 70 | 1009.0 |
| 20260510020554 | 79 | 159 | 3.5 | 8.7 | 0.00 | 0.52 | 0.52 | 69 | 1008.9 |
| 20260510020052 | 79 | 139 | 3.5 | 11.3 | 0.00 | 0.52 | 0.52 | 68 | 1008.7 |
| 20260510015552 | 79 | 115 | 2.6 | 8.7 | 0.00 | 0.52 | 0.52 | 66 | 1008.8 |
| 20260510015055 | 80 | 118 | 3.5 | 8.7 | 0.00 | 0.52 | 0.52 | 65 | 1008.8 |
| 20260510014554 | 80 | 142 | 3.5 | 8.7 | 0.00 | 0.52 | 0.52 | 65 | 1008.6 |
| 20260510014052 | 80 | 134 | 2.6 | 7.8 | 0.00 | 0.52 | 0.52 | 66 | 1008.4 |
| 20260510013556 | 80 | 173 | 2.6 | 6.1 | 0.00 | 0.52 | 0.52 | 65 | 1008.5 |
| 20260510013051 | 80 | 151 | 2.6 | 5.2 | 0.00 | 0.52 | 0.52 | 65 | 1008.4 |
| 20260510012551 | 81 | 194 | 2.6 | 6.1 | 0.00 | 0.52 | 0.52 | 64 | 1008.3 |
| 20260510012051 | 81 | 150 | 2.6 | 7.0 | 0.00 | 0.52 | 0.52 | 63 | 1008.3 |
| 20260510011551 | 81 | 120 | 1.7 | 7.0 | 0.00 | 0.52 | 0.52 | 62 | 1008.3 |
| 20260510011051 | 81 | 161 | 1.7 | 7.8 | 0.00 | 0.52 | 0.52 | 61 | 1008.3 |
| 20260510010550 | 82 | 159 | 3.5 | 9.6 | 0.00 | 0.52 | 0.52 | 61 | 1008.3 |
| 20260510010050 | 82 | 140 | 5.2 | 9.6 | 0.00 | 0.52 | 0.52 | 59 | 1008.5 |
| 20260510005549 | 82 | 151 | 5.2 | 9.6 | 0.00 | 0.52 | 0.52 | 58 | 1008.4 |
| 20260510005049 | 83 | 125 | 4.3 | 8.7 | 0.00 | 0.52 | 0.52 | 57 | 1008.4 |
| 20260510004649 | 83 | 133 | 3.5 | 8.7 | 0.00 | 0.52 | 0.52 | 58 | 1008.3 |
| 20260510004053 | 83 | 114 | 1.7 | 9.6 | 0.00 | 0.52 | 0.52 | 56 | 1008.4 |
| 20260510003550 | 84 | 202 | 3.5 | 9.6 | 0.00 | 0.52 | 0.52 | 55 | 1008.4 |
| 20260510003049 | 84 | 158 | 3.5 | 9.6 | 0.00 | 0.52 | 0.52 | 56 | 1008.4 |
| 20260510002551 | 84 | 130 | 3.5 | 10.4 | 0.00 | 0.52 | 0.52 | 56 | 1008.5 |
| 20260510002048 | 84 | 121 | 4.3 | 10.4 | 0.00 | 0.52 | 0.52 | 56 | 1008.4 |
| 20260510001552 | 84 | 181 | 4.3 | 11.3 | 0.00 | 0.52 | 0.52 | 56 | 1008.4 |
| 20260510001049 | 84 | 128 | 6.1 | 11.3 | 0.00 | 0.52 | 0.52 | 55 | 1008.4 |
| 20260510000548 | 84 | 167 | 3.5 | 8.7 | 0.00 | 0.52 | 0.52 | 55 | 1008.4 |
| 20260510000046 | 84 | 117 | 2.6 | 9.6 | 0.00 | 0.52 | 0.52 | 56 | 1008.3 |
| 20260509235546 | 84 | 201 | 5.2 | 12.2 | 0.00 | 0.52 | 0.52 | 56 | 1008.4 |
| 20260509235046 | 84 | 154 | 6.1 | 12.2 | 0.00 | 0.52 | 0.52 | 56 | 1008.5 |
| 20260509234547 | 85 | 140 | 5.2 | 9.6 | 0.00 | 0.52 | 0.52 | 56 | 1008.5 |
| 20260509234046 | 85 | 136 | 4.3 | 12.2 | 0.00 | 0.52 | 0.52 | 56 | 1008.4 |
| 20260509233548 | 85 | 150 | 5.2 | 12.2 | 0.00 | 0.52 | 0.52 | 53 | 1008.3 |
| 20260509233051 | 85 | 120 | 2.6 | 11.3 | 0.00 | 0.52 | 0.52 | 54 | 1008.3 |
| 20260509232545 | 85 | 159 | 6.1 | 11.3 | 0.00 | 0.52 | 0.52 | 53 | 1008.4 |
| 20260509232045 | 86 | 128 | 6.1 | 10.4 | 0.00 | 0.52 | 0.52 | 52 | 1008.5 |
| 20260509231546 | 86 | 118 | 4.3 | 13.0 | 0.00 | 0.52 | 0.52 | 53 | 1008.6 |
| 20260509231044 | 86 | 142 | 5.2 | 13.0 | 0.00 | 0.52 | 0.52 | 53 | 1008.5 |
| 20260509230548 | 86 | 175 | 3.5 | 12.2 | 0.00 | 0.52 | 0.52 | 53 | 1008.6 |
| 20260509230044 | 86 | 120 | 5.2 | 12.2 | 0.00 | 0.52 | 0.52 | 53 | 1008.6 |
| 20260509225544 | 86 | 151 | 7.0 | 12.2 | 0.00 | 0.52 | 0.52 | 51 | 1008.5 |
| 20260509225047 | 86 | 153 | 4.3 | 16.5 | 0.00 | 0.52 | 0.52 | 52 | 1008.5 |
| 20260509224555 | 87 | 191 | 7.0 | 16.5 | 0.00 | 0.52 | 0.52 | 54 | 1008.4 |
| 20260509224043 | 87 | 120 | 5.2 | 14.8 | 0.00 | 0.52 | 0.52 | 53 | 1008.4 |
| 20260509223544 | 87 | 148 | 4.3 | 14.8 | 0.00 | 0.52 | 0.52 | 53 | 1008.5 |
| 20260509223047 | 87 | 211 | 4.3 | 13.0 | 0.00 | 0.52 | 0.52 | 53 | 1008.4 |
| 20260509222544 | 88 | 207 | 5.2 | 13.0 | 0.00 | 0.52 | 0.52 | 52 | 1008.5 |
| 20260509222043 | 88 | 175 | 4.3 | 12.2 | 0.00 | 0.52 | 0.52 | 52 | 1008.5 |
| 20260509221559 | 88 | 128 | 6.1 | 12.2 | 0.00 | 0.52 | 0.52 | 51 | 1008.5 |
| 20260509221043 | 88 | 145 | 5.2 | 12.2 | 0.00 | 0.52 | 0.52 | 52 | 1008.5 |
| 20260509220543 | 88 | 103 | 7.0 | 12.2 | 0.00 | 0.52 | 0.52 | 51 | 1008.5 |
| 20260509220043 | 88 | 130 | 7.0 | 12.2 | 0.00 | 0.52 | 0.52 | 50 | 1008.5 |
| 20260509215542 | 89 | 169 | 5.2 | 10.4 | 0.00 | 0.52 | 0.52 | 50 | 1008.3 |
| 20260509215042 | 89 | 121 | 3.5 | 10.4 | 0.00 | 0.52 | 0.52 | 51 | 1008.1 |
| 20260509214541 | 90 | 136 | 4.3 | 11.3 | 0.00 | 0.52 | 0.52 | 48 | 1008.3 |
| 20260509214043 | 90 | 173 | 4.3 | 10.4 | 0.00 | 0.52 | 0.52 | 47 | 1008.3 |
| 20260509213542 | 90 | 110 | 4.3 | 8.7 | 0.00 | 0.52 | 0.52 | 47 | 1008.3 |
| 20260509213041 | 90 | 138 | 4.3 | 8.7 | 0.00 | 0.52 | 0.52 | 48 | 1008.5 |
| 20260509212539 | 89 | 171 | 5.2 | 9.6 | 0.00 | 0.52 | 0.52 | 48 | 1008.4 |
| 20260509212040 | 89 | 121 | 3.5 | 11.3 | 0.00 | 0.52 | 0.52 | 48 | 1008.5 |
| 20260509211542 | 88 | 125 | 6.1 | 10.4 | 0.00 | 0.52 | 0.52 | 51 | 1008.5 |
| 20260509211041 | 88 | 190 | 3.5 | 9.6 | 0.00 | 0.52 | 0.52 | 52 | 1008.4 |
| 20260509210540 | 88 | 86 | 5.2 | 12.2 | 0.00 | 0.52 | 0.52 | 50 | 1008.3 |
| 20260509210041 | 89 | 151 | 5.2 | 12.2 | 0.00 | 0.52 | 0.52 | 50 | 1008.3 |
| 20260509205538 | 89 | 146 | 4.3 | 9.6 | 0.00 | 0.52 | 0.52 | 51 | 1008.5 |
| 20260509205039 | 88 | 117 | 4.3 | 9.6 | 0.00 | 0.52 | 0.52 | 52 | 1008.5 |
| 20260509204539 | 89 | 84 | 3.5 | 9.6 | 0.00 | 0.52 | 0.52 | 52 | 1008.5 |
| 20260509204040 | 89 | 137 | 3.5 | 9.6 | 0.00 | 0.52 | 0.52 | 50 | 1008.5 |
| 20260509203539 | 89 | 146 | 3.5 | 9.6 | 0.00 | 0.52 | 0.52 | 51 | 1008.5 |
| 20260509203038 | 88 | 53 | 2.6 | 8.7 | 0.00 | 0.52 | 0.52 | 51 | 1008.6 |
| 20260509202538 | 88 | 113 | 5.2 | 9.6 | 0.00 | 0.52 | 0.52 | 52 | 1008.6 |
| 20260509202039 | 88 | 78 | 5.2 | 7.8 | 0.00 | 0.52 | 0.52 | 52 | 1008.6 |
| 20260509201547 | 89 | 109 | 2.6 | 9.6 | 0.00 | 0.52 | 0.52 | 52 | 1008.7 |
| 20260509201037 | 89 | 30 | 3.5 | 9.6 | 0.00 | 0.52 | 0.52 | 52 | 1008.8 |
| 20260509200538 | 90 | 121 | 4.3 | 9.6 | 0.00 | 0.52 | 0.52 | 52 | 1008.7 |
| 20260509200043 | 90 | 105 | 3.5 | 7.8 | 0.00 | 0.52 | 0.52 | 51 | 1008.7 |
| 20260509195537 | 91 | 119 | 3.5 | 7.0 | 0.00 | 0.52 | 0.52 | 50 | 1008.7 |
| 20260509195037 | 90 | 129 | 2.6 | 7.8 | 0.00 | 0.52 | 0.52 | 51 | 1008.8 |
| 20260509194536 | 90 | 184 | 3.5 | 7.8 | 0.00 | 0.52 | 0.52 | 51 | 1008.9 |
| 20260509194037 | 90 | 135 | 3.5 | 7.8 | 0.00 | 0.52 | 0.52 | 52 | 1009.0 |
| 20260509193536 | 90 | 78 | 3.5 | 6.1 | 0.00 | 0.52 | 0.52 | 52 | 1008.9 |
| 20260509193036 | 89 | 21 | 2.6 | 6.1 | 0.00 | 0.52 | 0.52 | 52 | 1009.0 |
| 20260509192535 | 90 | 119 | 3.5 | 7.0 | 0.00 | 0.52 | 0.52 | 53 | 1009.0 |
| 20260509192036 | 90 | 5 | 2.6 | 7.0 | 0.00 | 0.52 | 0.52 | 53 | 1008.9 |
| 20260509191536 | 90 | 121 | 3.5 | 7.0 | 0.00 | 0.52 | 0.52 | 51 | 1008.9 |
| 20260509191037 | 92 | 46 | 3.5 | 7.0 | 0.00 | 0.52 | 0.52 | 50 | 1008.9 |
| 20260509190533 | 91 | 261 | 0.0 | 3.5 | 0.00 | 0.52 | 0.52 | 48 | 1008.9 |
| 20260509190032 | 91 | 261 | 0.9 | 3.5 | 0.00 | 0.52 | 0.52 | 47 | 1008.9 |
| 20260509185532 | 91 | 258 | 0.9 | 6.1 | 0.00 | 0.52 | 0.52 | 49 | 1008.9 |
| 20260509185032 | 90 | 258 | 1.7 | 6.1 | 0.00 | 0.52 | 0.52 | 48 | 1009.0 |
| 20260509184532 | 90 | 249 | 0.9 | 4.3 | 0.00 | 0.52 | 0.52 | 47 | 1009.0 |
| 20260509184030 | 90 | 235 | 0.9 | 4.3 | 0.00 | 0.52 | 0.52 | 48 | 1008.9 |
| 20260509183530 | 90 | 194 | 1.7 | 3.5 | 0.00 | 0.52 | 0.52 | 50 | 1009.0 |
| 20260509183030 | 90 | 241 | 0.9 | 3.5 | 0.00 | 0.52 | 0.52 | 48 | 1009.0 |
| 20260509182529 | 90 | 232 | 0.9 | 6.1 | 0.00 | 0.52 | 0.52 | 52 | 1009.0 |
| 20260509182028 | 90 | 250 | 0.9 | 2.6 | 0.00 | 0.52 | 0.52 | 51 | 1008.9 |
| 20260509181527 | 89 | 235 | 0.9 | 6.1 | 0.00 | 0.52 | 0.52 | 52 | 1009.0 |
| 20260509181027 | 89 | 234 | 1.7 | 6.1 | 0.00 | 0.52 | 0.52 | 52 | 1009.1 |
| 20260509180526 | 89 | 260 | 1.7 | 7.8 | 0.00 | 0.52 | 0.52 | 51 | 1009.3 |
| 20260509180025 | 88 | 334 | 2.6 | 7.8 | 0.00 | 0.52 | 0.52 | 53 | 1009.3 |
| 20260509175524 | 89 | 244 | 1.7 | 4.3 | 0.00 | 0.52 | 0.52 | 53 | 1009.4 |
| 20260509175023 | 88 | 282 | 0.9 | 3.5 | 0.00 | 0.52 | 0.52 | 53 | 1009.4 |
| 20260509174522 | 88 | 263 | 0.9 | 6.1 | 0.00 | 0.52 | 0.52 | 54 | 1009.4 |
| 20260509174021 | 87 | 279 | 1.7 | 6.1 | 0.00 | 0.52 | 0.52 | 55 | 1009.4 |
| 20260509173520 | 87 | 263 | 0.9 | 7.8 | 0.00 | 0.52 | 0.52 | 57 | 1009.4 |
| 20260509173019 | 86 | 330 | 2.6 | 7.8 | 0.00 | 0.52 | 0.52 | 58 | 1009.5 |
| 20260509172521 | 86 | 275 | 0.9 | 5.2 | 0.00 | 0.52 | 0.52 | 56 | 1009.6 |
| 20260509172018 | 85 | 273 | 2.6 | 6.1 | 0.00 | 0.52 | 0.52 | 57 | 1009.7 |
| 20260509171527 | 85 | 256 | 1.7 | 6.1 | 0.00 | 0.52 | 0.52 | 58 | 1009.8 |
| 20260509171018 | 85 | 246 | 1.7 | 3.5 | 0.00 | 0.52 | 0.52 | 57 | 1009.7 |
| 20260509170521 | 85 | 269 | 0.9 | 4.3 | 0.00 | 0.52 | 0.52 | 58 | 1009.7 |
| 20260509170026 | 85 | 273 | 2.6 | 4.3 | 0.00 | 0.52 | 0.52 | 59 | 1009.8 |
| 20260509165515 | 85 | 190 | 0.9 | 3.5 | 0.00 | 0.52 | 0.52 | 60 | 1009.9 |
| 20260509165014 | 85 | 342 | 1.7 | 3.5 | 0.00 | 0.52 | 0.52 | 60 | 1009.9 |